Cosmos 1151 Rocket - Orbit

View from above orbital plane
View from above orbital plane
View from above satellite
View from above satellite

Ground track
Ground track

The orbit data is extracted from the following two-line orbital elements,

1 11672U 80005B   13145.21324141  .00000419  00000-0  44241-4 0  7016
2 11672 082.5174 039.0590 0017058 195.1959 280.6167 14.86757470802809
Epoch (UTC): 25 May 2013 05:07:04
Eccentricity: 0.0017058
inclination: 82.5174°
perigee height: 596 km
apogee height: 620 km
right ascension of ascending node: 39.0590°
argument of perigee: 195.1959°
revolutions per day: 14.86757470
mean anomaly at epoch: 280.6167°
orbit number at epoch: 80280

The dashed part of the orbit path shows where the satellite is in the earth's shadow,  

Developed and maintained by Chris Peat, Heavens-Above GmbH. Please read the updated FAQ before sending e-mail. Imprint. DLR